Location: ČR
(50.0000°N, 15.0000°E)
Time: 01:33:41
(UTC+00:00)

Envisat - Pass Details

Date: 27 September 2021
Orbit: 764 x 766 km, 98.2° (Epoch: 22 October)

Event Time Altitude Azimuth Distance (km) Brightness Sun altitude
Rises 02:42:09 0° 30° (NNE) 3,243 7.1 -21.4°
Reaches altitude 10° 02:45:47 10° 57° (ENE) 2,309 6.6 -20.9°
Maximum altitude 02:48:13 13° 85° (E) 2,077 6.2 -20.5°
Drops below altitude 10° 02:50:38 10° 114° (ESE) 2,301 6.0 -20.2°
Sets 02:54:13 0° 141° (SE) 3,220 6.4 -19.6°
